Regional Weather Roundup
Issued by NWS Charleston, WV

Home | Current Version | Previous Version | Text Only | Print | Product List | Glossary Off
Versions: 1 2 3 4 5 6 7 8 9 10 11 12 13 14 15 16 17 18 19 20 21 22 23 24 25 26 27 28 29 30 31 32 33 34 35 36 37 38 39 40 41 42 43 44 45 46 47 48 49 50

000
ASUS41 KRLX 202110
RWRRLX
West Virginia Regional Weather Roundup
National Weather Service Charleston WV
500 PM EDT THU JUL 20 2017

Note: "fair" indicates few or no clouds below 12,000 feet with no
significant weather and/or obstructions to visibility.

WVZ003-202200-
Northern Panhandle of West Virginia

CITY           SKY/WX    TMP DP  RH WIND       PRES   REMARKS
WHEELING       TSTM      73  69  87 SW12G30   30.02R VSB 3/4
$$

WVZ009-202200-
Northwest West Virginia

CITY           SKY/WX    TMP DP  RH WIND       PRES   REMARKS
PARKERSBURG    MOSUNNY   87  71  58 SW8G17    30.03F
$$

WVZ006-202200-
Western West Virginia

CITY           SKY/WX    TMP DP  RH WIND       PRES   REMARKS
HUNTINGTON     MOSUNNY   89  70  53 VRB3      30.03F
$$

WVZ015-202200-
West Central West Virginia

CITY           SKY/WX    TMP DP  RH WIND       PRES   REMARKS
CHARLESTON     CLOUDY    91  65  41 W7        30.04F
$$

WVZ022-031-202200-
North Central West Virginia

CITY           SKY/WX    TMP DP  RH WIND       PRES   REMARKS
CLARKSBURG     SUNNY     87  67  51 W12       30.04F
MORGANTOWN     CLOUDY    86  66  51 SW7       30.03F
$$

WVZ025-035-042-045-202200-
Southern West Virginia

CITY           SKY/WX    TMP DP  RH WIND       PRES   REMARKS
BECKLEY        MOSUNNY   83  64  52 W10       30.14F
LOGAN            N/A     86  66  51 CALM      30.10F
BLUEFIELD      MOSUNNY   81  65  58 W7        30.17F
LEWISBURG      CLOUDY    85  65  51 NW5       30.11F
$$

WVZ047-202200-
Northern Mountains of West Virginia

CITY           SKY/WX    TMP DP  RH WIND       PRES   REMARKS
ELKINS         MOSUNNY   86  66  51 NW9       30.09F
$$

WVZ052-202200-
Eastern Panhandle of West Virginia

CITY           SKY/WX    TMP DP  RH WIND       PRES   REMARKS
MARTINSBURG    PTSUNNY   97  67  37 NW9       29.94F HX 101
PETERSBURG     SUNNY     94  67  40 W10       29.99F HX  97
$$



USA.gov is the U.S. government's official web portal to all federal, state and local government web resources and services.